Pagina principale
METAR-TAF:

METAR-TAF

Aeroporti :

Meiringen, Svizzera

latitudine: 46-44-25N, longitudine: 8-06-36E, altezza: 577 m

Osservazione

Il bollettino è stato emesso 42 minuti fa, alle 15:20 UTC
Vento 6 kt da sud-ovest
Temperature 29°C
Umidità 43%
Pressione 1012 hPa
Visibilità 10 km o più
Nubi sparse ad un'altezza di 12000 ft

METAR: LSMM 181520Z AUTO 22006KT 9999NDV SCT120 29/15 Q1012 RMK

Ora: 18:02 (16:02 UTC)


TAF: mancante

Osservazioni e previsioni meteorologiche di più di 4000 aeroporti (messaggi METAR e TAF).

Le stazioni disponibili sono rappresentate dai dischi gialli e rossi sulla carta.

Puntare il mouse per vedere il nome della stazione.

Clicca sopra per visualizzare le osservazioni e previsioni meteorologiche.

Per cambiare la mappa : fare clic sui pulsanti verdi con una croce nera per ingrandire, il pulsante verde con un trattino per diminuire, o sulla freccia verde per le mappe adiacenti.


METAR-TAF: